sat.trackr.live / text

‹ back to catalog

STARLINK-34293

NORAD 64275 · 2025-120V

PAYLOAD ACTIVE UNKNOWN

§ Identity

Operator
Country
US
Launch date
2025-06-04
Launch site
AFWTR
Launch vehicle
Mass (kg)
RCS (m²)

Purposes: comms

External: N2YO · Heavens-Above · Gunter

§ Orbital elements

Epoch: 2026-05-25T02:50:55.724064Z

Period
94.10 min
Inclination
53.1587°
Eccentricity
0.0001210
Mean motion
15.30212027 rev/d
Perigee alt
474.3 km
Apogee alt
476.0 km
Semi-major
6,853.3 km
B*
5.2986e-4
RAAN
121.9735°
Arg perigee
106.7712°
Mean anomaly
253.3422°
Rev number
5,555

§ Raw data

STARLINK-342931 64275U 25120V   26145.11870051  .00015372  00000+0  52986-3 0  99952 64275  53.1587 121.9735 0001210 106.7712 253.3422 15.30212027 55555

JSON: /api/v1/satellites/64275 · /tle

For live sub-satellite position, see the globe view (requires WebGL).

§ Visibility from observer

Set your observer location to see the next 7 days of passes ≥ 10°. The values pass through the URL so the page stays shareable.

No JS? Fill the form by hand. The geolocation button needs JavaScript.